User: anonymous   Login
Location: El Mouella
(16.4949°N, 9.1594°W)
Time: 13:45:08
(UTC+00:00)
Language:

Cosmos 2279 Rocket - Orbit

View from above orbital plane
View from above orbital plane
View from above satellite
View from above satellite

Ground track
Ground track

The orbit data is extracted from the following two-line orbital elements,

1 23093U 94024B   20218.61279232 -.00000009 +00000-0 -24539-4 0  9999
2 23093 082.9482 342.4626 0010888 039.9787 320.2171 13.77820430788911
Epoch (UTC): 05 August 2020 14:42:25
Eccentricity: 0.0010888
inclination: 82.9482°
perigee height: 963 km
apogee height: 979 km
right ascension of ascending node: 342.4626°
argument of perigee: 39.9787°
revolutions per day: 13.77820430
mean anomaly at epoch: 320.2171°
orbit number at epoch: 78891

The dashed part of the orbit path shows where the satellite is in the earth's shadow,  

DLR